QPF
0.00 0.01 0.01 0.01 0.01 0.01 0.00 0.00 0.00 0.01 0.03 0.07 0.06 0.03 0.02 0.02 0.02 0.03 0.04 0.08 0.11 0.12 0.10 0.07 0.06 0.07 0.06 0.05 0.04 0.05 0.05 0.07 0.08 0.07 0.07 0.07 0.06 0.06 0.04 0.03 0.02 0.02 0.02
0.00 0.01 0.01 0.01 0.01 0.00 0.00 0.00 0.00 0.00 0.01 0.03 0.05 0.03 0.03 0.03 0.03 0.04 0.05 0.07 0.10 0.12 0.12 0.10 0.08 0.07 0.06 0.06 0.05 0.05 0.05 0.05 0.06 0.07 0.08 0.08 0.08 0.07 0.05 0.03 0.02 0.02 0.02
0.00 0.01 0.01 0.01 0.01 0.01 0.00 0.00 0.00 0.00 0.01 0.03 0.05 0.06 0.08 0.09 0.06 0.04 0.05 0.06 0.09 0.12 0.12 0.12 0.11 0.08 0.06 0.06 0.05 0.06 0.05 0.05 0.06 0.06 0.07 0.07 0.06 0.05 0.05 0.04 0.02 0.02 0.01
0.00 0.00 0.01 0.01 0.01 0.01 0.00 0.00 0.01 0.01 0.01 0.03 0.05 0.07 0.06 0.06 0.05 0.06 0.06 0.07 0.09 0.13 0.15 0.13 0.13 0.10 0.07 0.05 0.05 0.05 0.05 0.05 0.06 0.06 0.06 0.06 0.05 0.05 0.04 0.03 0.03 0.02 0.02
0.00 0.00 0.00 0.01 0.01 0.01 0.01 0.01 0.01 0.01 0.01 0.03 0.04 0.06 0.06 0.04 0.04 0.08 0.08 0.08 0.09 0.12 0.14 0.14 0.13 0.12 0.09 0.06 0.06 0.04 0.04 0.05 0.05 0.05 0.05 0.05 0.06 0.04 0.05 0.05 0.04 0.04 0.03
0.00 0.00 0.00 0.00 0.01 0.01 0.01 0.02 0.02 0.04 0.03 0.04 0.05 0.06 0.07 0.07 0.05 0.05 0.09 0.10 0.09 0.11 0.13 0.12 0.13 0.14 0.11 0.06 0.07 0.06 0.04 0.05 0.05 0.05 0.05 0.05 0.06 0.05 0.03 0.03 0.04 0.05 0.05
0.00 0.00 0.00 0.00 0.01 0.02 0.02 0.03 0.04 0.06 0.05 0.04 0.04 0.05 0.06 0.07 0.06 0.06 0.06 0.10 0.11 0.11 0.13 0.12 0.11 0.13 0.12 0.07 0.06 0.07 0.06 0.06 0.06 0.06 0.05 0.05 0.05 0.05 0.05 0.04 0.04 0.04 0.05
0.00 0.00 0.00 0.00 0.00 0.02 0.02 0.02 0.02 0.04 0.07 0.06 0.05 0.04 0.04 0.05 0.05 0.07 0.05 0.07 0.09 0.10 0.12 0.14 0.13 0.13 0.12 0.10 0.08 0.08 0.06 0.07 0.07 0.07 0.06 0.05 0.05 0.05 0.06 0.07 0.06 0.05 0.04
0.00 0.00 0.00 0.00 0.00 0.01 0.01 0.02 0.03 0.05 0.08 0.10 0.07 0.05 0.04 0.04 0.04 0.05 0.07 0.08 0.08 0.08 0.10 0.11 0.11 0.13 0.14 0.12 0.10 0.09 0.07 0.07 0.08 0.08 0.08 0.07 0.06 0.05 0.05 0.06 0.05 0.05 0.05
0.01 0.01 0.00 0.00 0.00 0.01 0.01 0.02 0.02 0.04 0.05 0.07 0.08 0.06 0.06 0.05 0.04 0.04 0.04 0.06 0.08 0.09 0.09 0.10 0.08 0.08 0.11 0.13 0.12 0.10 0.09 0.08 0.08 0.08 0.09 0.09 0.08 0.07 0.06 0.05 0.04 0.04 0.05
0.01 0.01 0.02 0.01 0.00 0.01 0.01 0.01 0.02 0.03 0.03 0.04 0.04 0.06 0.07 0.05 0.04 0.04 0.04 0.04 0.05 0.07 0.08 0.10 0.09 0.08 0.08 0.08 0.10 0.09 0.08 0.08 0.08 0.08 0.08 0.09 0.10 0.09 0.08 0.06 0.05 0.04 0.04
0.00 0.00 0.01 0.00 0.00 0.00 0.01 0.02 0.02 0.02 0.03 0.04 0.05 0.05 0.06 0.07 0.05 0.04 0.03 0.03 0.03 0.05 0.06 0.08 0.08 0.07 0.08 0.08 0.08 0.08 0.08 0.09 0.09 0.07 0.07 0.06 0.06 0.08 0.08 0.08 0.06 0.05 0.04
0.01 0.01 0.00 0.00 0.01 0.01 0.01 0.02 0.02 0.02 0.02 0.03 0.04 0.06 0.07 0.08 0.06 0.04 0.04 0.04 0.04 0.04 0.04 0.07 0.08 0.07 0.07 0.08 0.09 0.09 0.09 0.08 0.08 0.07 0.06 0.05 0.05 0.06 0.07 0.07 0.06 0.06 0.05
0.01 0.01 0.01 0.01 0.01 0.01 0.02 0.02 0.02 0.02 0.02 0.02 0.03 0.04 0.06 0.07 0.06 0.05 0.04 0.05 0.04 0.04 0.04 0.04 0.06 0.07 0.07 0.08 0.09 0.11 0.11 0.11 0.09 0.08 0.06 0.05 0.05 0.05 0.06 0.07 0.06 0.06 0.06
0.01 0.01 0.01 0.02 0.02 0.02 0.02 0.02 0.02 0.02 0.02 0.02 0.03 0.04 0.04 0.04 0.05 0.04 0.04 0.05 0.04 0.04 0.05 0.06 0.07 0.08 0.08 0.09 0.09 0.09 0.10 0.11 0.10 0.07 0.06 0.05 0.05 0.06 0.06 0.06 0.05 0.06 0.07
0.01 0.01 0.01 0.02 0.02 0.03 0.02 0.02 0.02 0.02 0.02 0.03 0.04 0.04 0.03 0.03 0.04 0.04 0.04 0.05 0.04 0.04 0.07 0.08 0.09 0.08 0.08 0.09 0.10 0.08 0.09 0.10 0.11 0.10 0.07 0.06 0.06 0.05 0.07 0.07 0.06 0.06 0.07
0.01 0.01 0.01 0.02 0.02 0.02 0.02 0.02 0.02 0.02 0.02 0.02 0.03 0.03 0.03 0.03 0.03 0.04 0.05 0.05 0.05 0.04 0.07 0.09 0.09 0.09 0.08 0.08 0.08 0.08 0.07 0.09 0.10 0.10 0.09 0.08 0.07 0.06 0.05 0.06 0.08 0.09 0.09
0.00 0.01 0.01 0.01 0.01 0.02 0.02 0.02 0.01 0.01 0.01 0.01 0.02 0.02 0.02 0.02 0.03 0.03 0.04 0.04 0.06 0.07 0.07 0.08 0.08 0.09 0.09 0.08 0.08 0.07 0.07 0.08 0.08 0.07 0.06 0.07 0.07 0.08 0.08 0.08 0.08 0.09 0.10
0.00 0.01 0.01 0.01 0.01 0.02 0.02 0.02 0.01 0.01 0.01 0.01 0.01 0.01 0.02 0.02 0.02 0.03 0.03 0.04 0.05 0.08 0.09 0.09 0.08 0.08 0.08 0.09 0.08 0.07 0.08 0.08 0.08 0.07 0.06 0.05 0.05 0.07 0.08 0.09 0.10 0.12 0.11
0.00 0.01 0.01 0.01 0.01 0.01 0.01 0.01 0.01 0.01 0.01 0.01 0.01 0.02 0.02 0.02 0.02 0.02 0.02 0.03 0.04 0.06 0.10 0.10 0.09 0.09 0.08 0.09 0.08 0.08 0.07 0.07 0.07 0.08 0.08 0.07 0.06 0.06 0.07 0.08 0.11 0.12 0.11
0.01 0.01 0.01 0.01 0.01 0.01 0.02 0.02 0.02 0.01 0.01 0.01 0.01 0.02 0.02 0.02 0.02 0.02 0.02 0.02 0.04 0.06 0.08 0.08 0.08 0.08 0.09 0.09 0.09 0.10 0.08 0.07 0.07 0.07 0.08 0.09 0.08 0.06 0.07 0.09 0.10 0.11 0.10
0.01 0.01 0.01 0.01 0.01 0.01 0.01 0.01 0.02 0.02 0.02 0.01 0.02 0.02 0.02 0.02 0.01 0.02 0.02 0.02 0.04 0.06 0.07 0.07 0.08 0.08 0.08 0.10 0.10 0.11 0.10 0.08 0.06 0.05 0.07 0.09 0.09 0.07 0.06 0.07 0.09 0.10 0.10
0.01 0.01 0.02 0.02 0.02 0.01 0.01 0.01 0.01 0.01 0.01 0.02 0.02 0.03 0.03 0.03 0.02 0.02 0.03 0.03 0.05 0.06 0.05 0.05 0.06 0.08 0.09 0.09 0.11 0.11 0.10 0.09 0.08 0.06 0.07 0.08 0.09 0.09 0.07 0.07 0.08 0.08 0.08
0.01 0.01 0.01 0.02 0.02 0.01 0.01 0.00 0.00 0.00 0.01 0.02 0.03 0.03 0.03 0.04 0.03 0.03 0.03 0.03 0.04 0.05 0.05 0.05 0.05 0.06 0.08 0.09 0.11 0.11 0.09 0.09 0.09 0.09 0.08 0.08 0.09 0.10 0.09 0.08 0.09 0.09 0.10
0.01 0.01 0.01 0.02 0.02 0.01 0.00 0.00 0.00 0.01 0.01 0.02 0.03 0.03 0.04 0.04 0.03 0.03 0.03 0.03 0.04 0.04 0.06 0.06 0.06 0.07 0.07 0.07 0.09 0.11 0.09 0.08 0.10 0.10 0.09 0.10 0.12 0.12 0.12 0.12 0.12 0.12 0.11
0.02 0.02 0.02 0.02 0.02 0.01 0.00 0.00 0.00 0.01 0.02 0.03 0.04 0.05 0.05 0.04 0.03 0.03 0.03 0.03 0.03 0.04 0.05 0.07 0.07 0.07 0.06 0.07 0.07 0.09 0.08 0.08 0.10 0.11 0.10 0.11 0.12 0.11 0.12 0.13 0.13 0.13 0.11
MSLP
1011.17 1011.67 1012.13 1012.51 1012.81 1013.04 1013.22 1013.40 1013.58 1013.80 1014.04 1014.30 1014.55 1014.78 1014.94 1015.04 1015.05 1015.00 1014.90 1014.77 1014.65 1014.54 1014.47 1014.43 1014.42 1014.40 1014.37 1014.30 1014.16 1013.94 1013.64 1013.25 1012.78 1012.26 1011.68 1011.07 1010.44 1009.79 1009.15 1008.51 1007.90 1007.33 1006.81
1010.69 1011.29 1011.82 1012.25 1012.56 1012.78 1012.94 1013.08 1013.24 1013.45 1013.70 1014.00 1014.29 1014.55 1014.75 1014.86 1014.88 1014.82 1014.71 1014.57 1014.44 1014.34 1014.28 1014.26 1014.26 1014.28 1014.27 1014.21 1014.10 1013.92 1013.66 1013.34 1012.94 1012.50 1012.00 1011.45 1010.87 1010.23 1009.57 1008.88 1008.19 1007.51 1006.88
1010.08 1010.78 1011.41 1011.90 1012.24 1012.46 1012.61 1012.73 1012.88 1013.09 1013.36 1013.68 1014.00 1014.29 1014.51 1014.63 1014.65 1014.57 1014.44 1014.29 1014.14 1014.04 1013.98 1013.97 1013.99 1014.01 1014.02 1013.99 1013.90 1013.76 1013.56 1013.31 1013.00 1012.66 1012.26 1011.80 1011.27 1010.68 1010.01 1009.28 1008.51 1007.73 1006.97
1009.38 1010.19 1010.90 1011.46 1011.84 1012.08 1012.23 1012.35 1012.50 1012.71 1013.00 1013.33 1013.68 1013.98 1014.21 1014.32 1014.32 1014.23 1014.07 1013.90 1013.74 1013.63 1013.57 1013.57 1013.61 1013.65 1013.67 1013.66 1013.60 1013.50 1013.35 1013.17 1012.95 1012.70 1012.40 1012.03 1011.58 1011.03 1010.36 1009.60 1008.76 1007.89 1007.01
1008.66 1009.55 1010.34 1010.96 1011.39 1011.66 1011.82 1011.94 1012.09 1012.31 1012.60 1012.95 1013.30 1013.61 1013.83 1013.93 1013.91 1013.80 1013.62 1013.43 1013.26 1013.15 1013.11 1013.12 1013.17 1013.23 1013.27 1013.28 1013.24 1013.16 1013.06 1012.93 1012.79 1012.61 1012.39 1012.10 1011.71 1011.20 1010.54 1009.76 1008.87 1007.90 1006.92
1007.98 1008.94 1009.79 1010.46 1010.93 1011.21 1011.38 1011.50 1011.66 1011.87 1012.17 1012.51 1012.86 1013.17 1013.37 1013.46 1013.42 1013.29 1013.10 1012.90 1012.75 1012.65 1012.63 1012.66 1012.74 1012.81 1012.87 1012.88 1012.85 1012.79 1012.70 1012.60 1012.49 1012.37 1012.20 1011.97 1011.62 1011.14 1010.49 1009.69 1008.76 1007.73 1006.66
1007.40 1008.40 1009.28 1009.98 1010.46 1010.75 1010.92 1011.04 1011.18 1011.39 1011.68 1012.02 1012.36 1012.65 1012.84 1012.91 1012.87 1012.73 1012.54 1012.36 1012.22 1012.15 1012.16 1012.23 1012.33 1012.43 1012.49 1012.50 1012.47 1012.39 1012.29 1012.18 1012.08 1011.96 1011.81 1011.60 1011.27 1010.81 1010.17 1009.36 1008.41 1007.35 1006.23
1006.93 1007.94 1008.83 1009.52 1010.00 1010.27 1010.43 1010.54 1010.67 1010.86 1011.14 1011.46 1011.79 1012.06 1012.24 1012.31 1012.26 1012.13 1011.96 1011.81 1011.71 1011.68 1011.73 1011.84 1011.96 1012.07 1012.13 1012.13 1012.06 1011.95 1011.81 1011.67 1011.53 1011.39 1011.23 1011.01 1010.69 1010.23 1009.60 1008.79 1007.84 1006.77 1005.64
1006.57 1007.56 1008.43 1009.10 1009.54 1009.79 1009.91 1010.00 1010.11 1010.29 1010.54 1010.85 1011.16 1011.42 1011.59 1011.66 1011.62 1011.51 1011.37 1011.26 1011.20 1011.22 1011.31 1011.45 1011.59 1011.70 1011.75 1011.71 1011.60 1011.44 1011.24 1011.05 1010.86 1010.68 1010.48 1010.23 1009.90 1009.43 1008.80 1008.01 1007.07 1006.01 1004.90
1006.28 1007.24 1008.06 1008.67 1009.06 1009.27 1009.36 1009.42 1009.51 1009.68 1009.92 1010.20 1010.50 1010.75 1010.92 1010.99 1010.96 1010.88 1010.78 1010.71 1010.69 1010.75 1010.87 1011.02 1011.16 1011.26 1011.28 1011.20 1011.05 1010.83 1010.57 1010.32 1010.07 1009.84 1009.60 1009.32 1008.95 1008.47 1007.84 1007.05 1006.12 1005.09 1004.00
1006.03 1006.93 1007.67 1008.21 1008.55 1008.71 1008.78 1008.82 1008.90 1009.05 1009.28 1009.56 1009.84 1010.08 1010.24 1010.31 1010.30 1010.24 1010.17 1010.12 1010.14 1010.21 1010.34 1010.49 1010.62 1010.68 1010.66 1010.55 1010.35 1010.08 1009.79 1009.49 1009.20 1008.92 1008.64 1008.32 1007.92 1007.41 1006.75 1005.94 1005.01 1003.98 1002.92
1005.78 1006.60 1007.26 1007.73 1008.00 1008.13 1008.18 1008.22 1008.30 1008.46 1008.68 1008.95 1009.21 1009.44 1009.59 1009.66 1009.64 1009.59 1009.53 1009.50 1009.51 1009.59 1009.70 1009.82 1009.92 1009.95 1009.89 1009.74 1009.51 1009.22 1008.91 1008.59 1008.28 1007.98 1007.67 1007.30 1006.85 1006.28 1005.57 1004.72 1003.75 1002.70 1001.63
1005.53 1006.25 1006.82 1007.22 1007.45 1007.56 1007.60 1007.66 1007.75 1007.92 1008.15 1008.41 1008.65 1008.85 1008.98 1009.02 1009.00 1008.93 1008.86 1008.82 1008.82 1008.86 1008.94 1009.02 1009.07 1009.06 1008.97 1008.80 1008.56 1008.28 1007.97 1007.67 1007.36 1007.05 1006.71 1006.30 1005.78 1005.13 1004.33 1003.38 1002.33 1001.22 1000.11
1005.28 1005.89 1006.38 1006.70 1006.90 1007.01 1007.08 1007.16 1007.29 1007.47 1007.70 1007.94 1008.17 1008.33 1008.42 1008.42 1008.36 1008.27 1008.16 1008.09 1008.05 1008.05 1008.08 1008.11 1008.11 1008.07 1007.96 1007.79 1007.57 1007.31 1007.04 1006.77 1006.49 1006.18 1005.81 1005.34 1004.73 1003.96 1003.03 1001.95 1000.77 999.55 998.37
1005.05 1005.56 1005.95 1006.22 1006.40 1006.52 1006.62 1006.74 1006.91 1007.11 1007.34 1007.56 1007.74 1007.85 1007.88 1007.83 1007.72 1007.58 1007.44 1007.31 1007.23 1007.18 1007.16 1007.15 1007.11 1007.04 1006.93 1006.77 1006.59 1006.38 1006.17 1005.94 1005.69 1005.37 1004.96 1004.42 1003.70 1002.78 1001.69 1000.44 999.10 997.76 996.48
1004.87 1005.26 1005.57 1005.80 1005.97 1006.11 1006.24 1006.40 1006.60 1006.81 1007.02 1007.20 1007.33 1007.37 1007.34 1007.22 1007.06 1006.86 1006.68 1006.51 1006.39 1006.30 1006.25 1006.20 1006.14 1006.06 1005.96 1005.84 1005.70 1005.55 1005.39 1005.20 1004.96 1004.63 1004.17 1003.52 1002.67 1001.60 1000.32 998.90 997.40 995.92 994.54
1004.72 1005.00 1005.24 1005.43 1005.59 1005.75 1005.92 1006.11 1006.31 1006.52 1006.69 1006.82 1006.87 1006.84 1006.73 1006.55 1006.33 1006.10 1005.88 1005.70 1005.55 1005.44 1005.37 1005.31 1005.25 1005.18 1005.11 1005.02 1004.92 1004.82 1004.70 1004.54 1004.30 1003.93 1003.39 1002.63 1001.64 1000.41 998.97 997.38 995.75 994.16 992.72
1004.59 1004.77 1004.94 1005.09 1005.25 1005.42 1005.61 1005.80 1005.99 1006.16 1006.28 1006.33 1006.31 1006.20 1006.02 1005.79 1005.53 1005.27 1005.04 1004.86 1004.72 1004.62 1004.55 1004.51 1004.47 1004.42 1004.38 1004.33 1004.27 1004.20 1004.10 1003.94 1003.66 1003.24 1002.61 1001.74 1000.61 999.24 997.67 995.98 994.26 992.63 991.19
1004.42 1004.52 1004.63 1004.76 1004.91 1005.07 1005.24 1005.42 1005.57 1005.68 1005.73 1005.70 1005.59 1005.41 1005.17 1004.90 1004.63 1004.38 1004.16 1004.00 1003.90 1003.83 1003.80 1003.79 1003.78 1003.77 1003.76 1003.74 1003.71 1003.65 1003.54 1003.35 1003.02 1002.52 1001.80 1000.83 999.60 998.14 996.50 994.77 993.04 991.45 990.09
1004.18 1004.22 1004.29 1004.38 1004.50 1004.64 1004.79 1004.92 1005.00 1005.04 1005.00 1004.89 1004.71 1004.47 1004.19 1003.91 1003.65 1003.42 1003.25 1003.14 1003.09 1003.08 1003.09 1003.13 1003.16 1003.19 1003.20 1003.20 1003.18 1003.11 1002.98 1002.74 1002.35 1001.78 1000.97 999.92 998.64 997.14 995.50 993.81 992.17 990.69 989.48
1003.85 1003.84 1003.87 1003.94 1004.03 1004.12 1004.22 1004.28 1004.29 1004.24 1004.12 1003.94 1003.70 1003.42 1003.13 1002.86 1002.63 1002.45 1002.34 1002.29 1002.30 1002.35 1002.42 1002.49 1002.56 1002.62 1002.66 1002.67 1002.65 1002.56 1002.40 1002.11 1001.66 1001.02 1000.16 999.07 997.77 996.30 994.73 993.15 991.67 990.38 989.37
1003.43 1003.39 1003.40 1003.42 1003.47 1003.52 1003.54 1003.53 1003.47 1003.34 1003.15 1002.91 1002.63 1002.34 1002.07 1001.82 1001.64 1001.52 1001.47 1001.49 1001.55 1001.65 1001.76 1001.87 1001.97 1002.06 1002.11 1002.13 1002.10 1002.00 1001.80 1001.47 1000.98 1000.30 999.42 998.33 997.06 995.67 994.22 992.81 991.53 990.47 989.70
1002.97 1002.91 1002.89 1002.88 1002.88 1002.86 1002.82 1002.73 1002.60 1002.40 1002.16 1001.89 1001.61 1001.33 1001.09 1000.89 1000.76 1000.70 1000.70 1000.76 1000.86 1000.99 1001.13 1001.26 1001.38 1001.48 1001.55 1001.57 1001.55 1001.44 1001.23 1000.89 1000.38 999.69 998.81 997.76 996.56 995.28 993.98 992.76 991.70 990.87 990.33
1002.54 1002.46 1002.40 1002.35 1002.30 1002.22 1002.11 1001.96 1001.76 1001.53 1001.26 1000.99 1000.72 1000.47 1000.27 1000.13 1000.05 1000.03 1000.07 1000.16 1000.27 1000.40 1000.54 1000.68 1000.80 1000.91 1000.99 1001.04 1001.03 1000.94 1000.74 1000.41 999.91 999.25 998.41 997.41 996.30 995.14 994.00 992.96 992.10 991.47 991.13
1002.19 1002.09 1001.99 1001.90 1001.79 1001.65 1001.48 1001.28 1001.04 1000.78 1000.52 1000.26 1000.02 999.82 999.67 999.58 999.54 999.55 999.60 999.68 999.78 999.90 1000.02 1000.14 1000.26 1000.38 1000.48 1000.55 1000.58 1000.53 1000.37 1000.08 999.63 999.02 998.23 997.31 996.30 995.25 994.24 993.34 992.64 992.16 991.97
1002.00 1001.86 1001.72 1001.57 1001.40 1001.20 1000.98 1000.73 1000.47 1000.21 999.95 999.72 999.53 999.38 999.28 999.23 999.21 999.23 999.27 999.33 999.40 999.48 999.57 999.67 999.78 999.91 1000.04 1000.15 1000.23 1000.24 1000.15 999.93 999.55 999.00 998.29 997.44 996.51 995.55 994.64 993.84 993.23 992.85 992.73
Thickness
5619 5619 5620 5620 5619 5618 5617 5616 5615 5615 5614 5613 5612 5611 5611 5612 5611 5611 5611 5612 5612 5614 5614 5616 5617 5618 5619 5621 5621 5621 5620 5620 5620 5620 5624 5629 5633 5635 5638 5639 5641 5642 5643
5609 5610 5611 5610 5609 5608 5607 5606 5605 5605 5604 5603 5602 5601 5601 5601 5601 5600 5600 5600 5600 5601 5602 5603 5605 5606 5607 5609 5609 5609 5608 5609 5609 5608 5609 5614 5619 5625 5629 5630 5631 5633 5633
5602 5600 5599 5599 5597 5597 5596 5597 5595 5594 5594 5593 5591 5590 5588 5587 5587 5587 5588 5589 5589 5589 5590 5591 5593 5595 5596 5597 5598 5598 5598 5598 5598 5598 5598 5600 5607 5611 5616 5619 5622 5622 5623
5593 5591 5590 5589 5588 5587 5586 5585 5584 5583 5583 5582 5579 5578 5576 5576 5578 5577 5577 5577 5577 5577 5579 5580 5581 5583 5583 5585 5587 5588 5588 5587 5588 5588 5589 5590 5594 5595 5602 5607 5609 5611 5613
5584 5583 5581 5580 5579 5577 5575 5573 5572 5572 5571 5570 5568 5567 5566 5566 5567 5566 5565 5565 5565 5566 5568 5569 5570 5571 5572 5574 5575 5576 5576 5577 5578 5579 5580 5580 5581 5584 5587 5593 5598 5599 5602
5574 5573 5572 5570 5568 5565 5563 5561 5560 5560 5560 5559 5558 5556 5555 5555 5555 5554 5554 5555 5555 5556 5557 5559 5559 5560 5561 5562 5564 5566 5566 5568 5569 5570 5572 5572 5573 5575 5576 5580 5584 5587 5592
5561 5560 5560 5558 5556 5554 5551 5550 5549 5549 5549 5548 5547 5547 5546 5544 5544 5544 5544 5545 5546 5547 5548 5549 5550 5551 5553 5554 5555 5556 5557 5558 5560 5562 5564 5566 5567 5568 5568 5570 5572 5574 5579
5550 5549 5549 5547 5545 5543 5541 5539 5538 5539 5539 5538 5537 5537 5535 5533 5534 5535 5535 5536 5537 5539 5540 5541 5542 5544 5545 5547 5548 5548 5549 5550 5552 5555 5556 5558 5560 5560 5560 5561 5561 5563 5568
5540 5538 5537 5536 5533 5531 5530 5529 5528 5528 5528 5527 5527 5526 5525 5524 5525 5526 5527 5527 5529 5531 5532 5533 5535 5537 5539 5540 5540 5541 5543 5543 5546 5548 5550 5551 5553 5553 5553 5554 5555 5554 5557
5529 5529 5527 5525 5524 5522 5521 5519 5518 5518 5517 5517 5517 5518 5516 5516 5516 5517 5518 5519 5520 5522 5523 5525 5527 5530 5531 5533 5533 5534 5536 5537 5539 5541 5543 5545 5546 5546 5546 5547 5548 5549 5550
5519 5518 5516 5515 5515 5512 5511 5509 5509 5509 5508 5509 5509 5509 5507 5506 5507 5509 5510 5511 5512 5514 5516 5518 5520 5522 5524 5526 5526 5527 5528 5529 5531 5534 5536 5538 5538 5538 5539 5540 5541 5542 5543
5509 5507 5507 5506 5504 5503 5502 5501 5501 5500 5500 5500 5500 5499 5498 5498 5498 5500 5502 5502 5504 5506 5509 5511 5512 5515 5517 5518 5519 5520 5520 5521 5523 5526 5528 5530 5531 5532 5533 5534 5535 5536 5537
5499 5498 5496 5495 5494 5493 5492 5492 5491 5490 5491 5491 5490 5490 5489 5489 5490 5491 5493 5494 5495 5498 5501 5503 5505 5507 5509 5511 5512 5512 5513 5514 5516 5519 5521 5523 5524 5525 5528 5529 5530 5531 5531
5487 5486 5485 5484 5484 5483 5482 5481 5481 5481 5481 5481 5481 5481 5480 5480 5481 5483 5484 5486 5487 5488 5491 5494 5497 5500 5502 5503 5504 5505 5506 5508 5510 5512 5514 5517 5518 5521 5523 5524 5524 5524 5524
5478 5477 5475 5473 5473 5472 5471 5471 5471 5471 5471 5470 5471 5472 5472 5473 5473 5474 5475 5477 5479 5481 5483 5486 5489 5492 5494 5496 5498 5499 5501 5502 5504 5506 5509 5511 5514 5517 5518 5520 5519 5519 5519
5467 5467 5465 5462 5461 5460 5461 5461 5461 5461 5461 5461 5462 5463 5464 5465 5465 5466 5467 5469 5471 5473 5475 5478 5481 5484 5487 5490 5492 5494 5495 5496 5498 5501 5503 5506 5508 5511 5513 5514 5515 5516 5515
5457 5456 5453 5451 5451 5451 5451 5451 5452 5452 5452 5453 5453 5455 5455 5456 5456 5458 5460 5461 5463 5465 5468 5471 5473 5476 5479 5482 5485 5488 5489 5490 5492 5494 5497 5500 5503 5505 5506 5508 5509 5510 5511
5444 5443 5442 5442 5442 5442 5443 5443 5443 5444 5444 5444 5445 5446 5447 5448 5449 5450 5452 5454 5456 5458 5461 5464 5465 5468 5471 5474 5477 5480 5481 5482 5485 5488 5490 5493 5496 5498 5500 5501 5501 5503 5504
5432 5431 5432 5432 5432 5433 5434 5434 5434 5434 5434 5435 5437 5438 5439 5440 5442 5443 5445 5447 5450 5453 5455 5458 5460 5461 5464 5467 5470 5472 5473 5475 5478 5481 5484 5487 5489 5492 5493 5494 5494 5496 5497
5422 5422 5422 5423 5423 5424 5424 5424 5425 5425 5425 5427 5429 5431 5432 5433 5435 5436 5439 5441 5443 5446 5449 5452 5453 5455 5457 5461 5464 5466 5467 5469 5472 5475 5477 5480 5483 5484 5486 5487 5488 5488 5489
5413 5413 5413 5413 5414 5414 5414 5414 5415 5415 5418 5419 5421 5423 5424 5425 5426 5429 5431 5433 5436 5438 5440 5443 5446 5448 5452 5455 5458 5460 5461 5464 5466 5468 5470 5472 5474 5477 5478 5480 5481 5481 5481
5403 5404 5403 5404 5405 5405 5404 5405 5406 5408 5409 5410 5412 5413 5415 5417 5419 5421 5423 5426 5428 5430 5433 5435 5439 5442 5445 5449 5451 5454 5456 5457 5459 5460 5462 5465 5467 5469 5471 5473 5474 5473 5473
5392 5393 5393 5394 5395 5395 5395 5395 5398 5399 5400 5402 5403 5405 5407 5409 5411 5413 5417 5420 5422 5423 5426 5429 5432 5436 5439 5441 5445 5447 5449 5451 5453 5454 5456 5459 5460 5462 5463 5465 5465 5465 5465
5382 5383 5383 5385 5387 5388 5388 5388 5389 5390 5392 5393 5395 5397 5398 5401 5404 5407 5409 5412 5415 5417 5420 5423 5425 5428 5431 5434 5437 5439 5441 5444 5446 5447 5450 5452 5453 5454 5455 5456 5456 5457 5458
5373 5374 5374 5376 5378 5379 5381 5381 5382 5383 5384 5386 5387 5390 5392 5394 5396 5399 5401 5404 5408 5412 5415 5417 5420 5423 5425 5429 5432 5434 5436 5438 5440 5441 5443 5444 5445 5447 5447 5448 5448 5448 5448
5363 5364 5365 5367 5370 5372 5374 5375 5375 5376 5377 5379 5380 5382 5385 5388 5390 5391 5394 5398 5402 5407 5410 5413 5415 5418 5421 5424 5427 5429 5432 5434 5435 5436 5438 5439 5441 5442 5442 5441 5441 5440 5439